GFSSGP_700_spd_144.txt.gz
Wind_Speed
10 9 5 2 1 3 8 8 5 3 2 9 3 3 5 6 7 3 1 4 5 5 6 6 6 4 4 4 4 3 2 2 1 3 3 1 2 3 3 4 7 5 5 5 5 3 2 3 3
10 8 2 2 5 11 10 8 4 9 10 10 3 2 3 11 13 15 11 6 8 8 6 8 8 8 7 7 6 6 5 4 3 2 2 3 1 4 6 6 8 6 6 6 4 4 2 1 1
8 6 3 2 5 12 5 4 7 12 6 1 2 4 7 3 13 16 13 12 13 13 10 10 11 11 9 9 8 8 7 6 5 4 4 2 3 4 6 8 8 7 6 7 5 4 3 3 2
7 6 5 10 11 8 11 4 11 5 4 5 5 3 11 17 18 14 14 12 11 12 9 12 13 13 11 10 10 10 9 8 8 6 5 4 3 5 6 8 8 8 6 6 6 4 4 3 1
5 4 6 11 9 9 6 10 10 3 5 4 10 6 11 14 17 15 14 13 14 18 14 14 12 13 13 13 13 13 12 10 10 9 8 6 6 6 7 8 8 8 6 5 5 3 4 4 3
4 5 7 12 13 13 12 10 11 7 8 7 9 6 13 17 18 16 16 13 12 14 18 15 13 14 14 15 16 16 14 14 12 12 10 9 9 9 9 9 9 7 6 5 3 4 3 7 5
5 6 11 10 13 9 9 10 8 4 8 9 14 12 8 20 20 19 20 17 18 15 20 18 19 16 16 18 19 20 19 17 16 15 14 12 11 10 11 10 10 9 7 5 5 4 4 9 9
7 9 7 10 10 9 11 15 12 13 6 15 16 4 16 20 16 13 19 16 18 19 24 21 22 18 19 19 22 22 21 21 20 19 18 15 12 12 12 11 11 10 8 6 6 7 8 8 10
7 7 4 9 8 9 12 15 9 12 12 9 11 15 17 25 21 20 20 19 21 19 27 24 26 23 24 23 25 24 23 24 24 25 22 19 16 15 15 14 12 11 9 7 8 10 8 10 10
6 5 4 11 11 12 9 13 10 12 6 8 11 14 20 15 16 15 15 19 23 25 26 24 25 23 25 24 26 27 26 28 27 29 25 22 17 15 16 15 14 13 11 9 9 9 10 10 11
5 9 5 14 18 18 14 12 12 14 12 9 11 14 21 15 15 13 14 19 22 22 29 29 28 26 26 27 27 27 28 28 20 24 20 18 24 22 18 18 16 14 12 11 11 14 14 12 12
12 7 12 12 15 12 13 12 12 14 15 15 20 22 22 19 14 19 18 18 21 22 23 29 30 29 28 27 30 29 30 28 25 26 24 17 19 19 21 19 16 14 16 12 12 15 14 13 13
15 8 8 17 16 14 15 16 16 18 15 19 24 18 19 19 18 20 20 20 21 24 27 27 32 31 30 29 32 30 28 26 22 24 22 21 26 22 25 19 18 16 18 15 13 13 14 12 12
5 11 15 15 16 15 16 18 16 14 14 17 26 20 19 21 22 22 21 20 22 22 25 32 29 33 32 30 32 32 29 26 23 22 21 18 22 21 16 23 19 22 18 17 9 13 16 16 16
15 18 14 15 17 17 16 22 17 13 15 17 27 24 18 21 25 24 23 25 28 28 26 29 31 28 30 30 30 31 29 26 22 20 21 21 21 16 18 27 14 22 20 13 13 13 15 15 14
14 13 16 12 13 16 19 26 7 16 17 18 24 17 20 20 25 23 23 31 32 34 32 33 33 32 29 30 29 30 30 30 24 22 22 23 22 20 14 29 20 27 18 15 16 15 16 15 14
11 14 13 13 12 12 19 19 11 14 19 24 20 15 16 18 20 24 25 30 35 38 42 36 38 36 30 30 28 29 30 29 28 25 25 25 24 22 17 25 29 30 27 24 19 17 17 16 17
13 15 14 10 14 16 17 24 22 20 25 26 24 15 15 22 23 32 38 40 38 39 38 35 35 39 35 29 29 26 27 28 29 27 27 26 26 23 24 30 37 34 29 25 21 21 19 18 17
20 20 19 16 15 20 23 28 24 15 19 24 24 19 18 23 32 33 34 28 25 23 22 26 26 36 38 31 29 26 23 23 26 24 25 26 27 26 28 32 36 38 31 27 22 23 19 18 19
19 20 21 19 16 22 25 30 27 23 21 19 26 22 25 26 28 22 19 17 15 11 11 10 19 25 30 32 27 28 27 25 21 21 23 24 25 27 30 38 35 38 34 28 23 23 20 21 20
21 21 21 21 19 20 25 30 15 11 16 29 28 23 21 21 17 14 13 12 10 7 5 3 10 17 24 27 29 24 21 19 20 22 24 25 23 26 30 39 34 37 33 29 29 22 22 20 18
24 15 18 21 15 12 7 10 19 15 18 19 19 15 17 14 12 9 8 8 7 5 2 2 6 11 15 20 23 23 24 21 20 22 25 25 23 17 31 36 39 36 33 31 27 21 19 19 19
23 18 17 14 14 19 23 15 10 10 26 22 12 17 16 11 8 5 5 4 4 7 9 8 7 10 13 14 17 17 13 17 20 24 24 21 21 22 26 35 45 35 32 31 23 22 20 22 21
15 19 18 16 12 9 23 22 12 20 17 11 17 19 12 9 5 2 3 2 5 5 7 9 10 8 7 7 9 9 11 13 17 21 26 28 21 37 38 40 40 34 30 27 19 23 23 23 22
18 11 3 5 5 5 5 6 13 5 11 20 22 17 8 6 5 3 2 1 2 2 3 6 8 7 7 5 7 6 8 14 23 23 23 24 27 36 34 37 39 35 33 26 22 24 25 24 24
24 22 9 5 2 3 6 7 7 18 25 23 20 14 6 4 6 6 5 3 3 2 2 3 5 7 8 7 8 7 7 10 19 11 28 38 27 33 33 35 39 38 24 24 26 29 27 26 26
17 27 24 14 19 7 10 15 16 20 21 17 18 12 6 4 5 7 7 6 5 5 6 5 6 6 7 10 13 13 9 7 17 12 20 13 28 25 30 33 42 31 24 30 27 26 26 29 27
27 13 15 15 3 5 10 22 15 14 15 19 17 12 8 5 4 7 10 7 8 6 6 6 6 7 8 10 10 8 10 2 1 17 8 18 20 21 18 22 35 24 23 22 19 22 30 28 30
35 28 18 15 12 3 4 2 5 13 15 11 14 13 8 6 4 5 8 10 10 8 7 6 6 5 4 6 10 10 7 4 12 6 13 11 10 11 6 14 24 21 23 20 21 27 26 32 33
27 36 29 10 13 17 9 9 10 10 12 12 13 12 9 7 5 6 7 10 10 8 7 6 6 5 1 3 5 8 7 5 7 10 8 10 10 7 6 16 11 17 19 21 23 22 31 25 18

GFSSGP_700_spd_147.txt.gz
Wind_Speed
7 5 5 5 3 2 3 3 4 7 9 12 8 5 3 5 7 1 1 2 3 4 5 6 5 5 4 4 3 3 3 3 2 2 1 1 0 2 7 8 5 8 6 7 4 2 2 1 3
7 5 5 5 3 4 4 7 10 9 11 8 4 7 7 12 12 10 8 7 4 4 3 7 8 8 7 7 6 5 5 5 4 3 2 1 2 3 4 10 9 6 7 6 3 2 2 2 2
7 6 6 4 4 4 3 3 9 11 12 10 8 6 7 8 12 15 13 12 9 8 9 8 9 10 11 10 9 7 7 7 7 5 4 3 3 4 6 8 9 9 7 6 4 4 3 3 2
6 7 7 5 5 3 5 9 11 10 7 6 12 7 9 13 14 16 16 15 14 10 9 11 12 12 12 10 10 10 9 9 8 7 6 5 5 6 7 9 10 9 7 6 5 4 5 4 0
7 9 9 5 3 4 7 14 12 10 9 8 6 10 9 13 15 17 15 17 17 13 12 13 12 11 13 13 12 13 12 10 11 9 8 6 6 8 9 9 9 9 7 6 4 3 4 4 2
9 8 6 6 4 11 11 13 19 17 13 11 14 14 13 12 13 15 14 17 21 16 14 14 14 15 13 14 14 14 15 13 12 12 11 9 8 9 10 11 10 8 7 4 2 2 2 4 6
8 8 8 8 5 2 9 15 20 11 9 12 13 14 16 15 16 16 18 17 21 18 13 14 15 15 17 16 15 16 17 17 15 15 14 13 11 10 10 11 10 9 7 5 5 6 5 7 6
8 7 4 5 5 7 8 15 18 14 14 15 14 14 20 18 18 20 11 15 18 21 18 18 16 19 19 20 18 21 21 19 19 18 17 17 14 12 11 11 12 11 9 7 8 8 9 10 13
8 7 4 2 4 8 15 16 18 15 11 18 17 19 24 19 18 20 20 18 20 21 22 21 22 22 21 22 22 22 23 23 21 21 21 19 17 15 15 15 13 12 11 10 11 11 10 11 14
6 9 5 4 7 11 16 19 13 13 11 8 9 16 19 21 22 20 20 20 21 25 28 24 22 24 24 25 25 26 28 27 25 24 24 26 26 22 19 17 15 13 12 12 14 14 14 13 18
6 8 11 10 15 19 22 24 19 16 20 13 12 17 22 15 17 17 18 20 16 16 20 28 29 28 26 26 26 27 27 28 28 28 27 24 22 23 24 23 17 14 15 15 14 16 15 15 18
9 8 11 14 15 14 13 15 17 16 14 12 18 18 24 26 26 24 16 16 19 17 17 20 24 29 32 32 29 29 29 28 27 30 26 19 22 27 20 23 23 19 15 16 15 16 16 16 19
12 6 10 10 17 15 13 14 16 18 17 18 19 21 22 25 24 21 23 20 17 19 21 20 23 25 30 33 32 31 30 30 30 37 23 24 24 13 18 19 23 23 18 19 14 15 17 13 17
7 11 13 14 18 18 17 15 17 11 10 14 22 23 17 21 24 24 23 22 23 24 25 27 29 27 26 31 33 33 32 30 27 19 18 14 9 16 21 27 27 23 22 22 15 11 16 16 16
13 18 18 17 13 15 11 19 16 9 9 15 20 24 21 25 21 18 20 23 26 27 27 30 33 34 29 27 30 33 30 30 28 21 18 16 10 17 17 14 31 22 26 22 13 13 15 17 15
12 15 16 3 5 8 13 24 17 13 12 14 18 23 26 23 20 20 23 29 31 34 35 31 33 40 35 30 27 29 29 28 26 21 19 15 17 16 18 16 12 21 29 21 9 8 13 15 13
12 13 9 14 11 14 15 24 14 14 17 15 18 22 23 13 22 24 29 31 36 41 40 40 39 38 41 35 28 27 27 26 24 23 22 19 17 16 16 11 24 27 13 21 13 11 13 14 14
6 14 17 18 9 17 20 28 28 24 22 23 22 27 20 20 23 29 34 39 41 43 46 49 47 45 42 41 30 27 24 25 25 24 24 21 19 19 20 14 22 34 22 23 22 16 16 16 16
8 14 19 19 17 19 25 29 30 32 28 20 20 23 27 31 27 31 33 36 34 30 27 27 26 25 25 36 29 25 24 22 23 23 24 23 23 21 21 18 26 27 31 29 16 18 18 20 19
22 23 24 24 21 17 24 33 34 33 25 22 21 28 33 31 27 25 29 22 22 19 15 11 15 14 18 32 25 22 23 21 17 17 20 22 22 21 23 23 29 31 34 28 27 23 20 20 20
21 23 26 26 20 22 29 39 32 9 14 18 25 29 31 30 25 23 18 16 16 13 11 9 6 3 8 17 23 22 20 20 18 17 20 20 20 20 18 23 33 36 34 30 24 21 22 20 20
23 21 20 18 15 17 11 12 33 27 28 19 22 28 30 21 20 16 12 12 11 9 8 4 2 6 7 12 20 21 17 16 14 16 16 18 20 21 22 23 31 39 35 30 28 21 20 20 17
29 18 18 20 20 23 27 14 22 9 16 23 26 26 17 14 15 11 7 7 5 7 7 1 4 10 10 13 14 15 14 15 17 15 15 20 21 26 25 24 32 41 33 32 32 27 20 27 18
23 20 17 21 15 8 21 17 14 11 10 18 24 20 8 13 13 7 4 3 1 4 5 3 7 7 11 12 11 14 16 15 11 12 16 18 22 20 20 26 36 42 34 36 32 28 20 23 21
19 16 3 2 2 7 2 8 23 13 10 15 19 18 11 13 11 7 3 2 2 3 4 3 5 8 9 11 12 13 11 11 10 16 23 21 22 22 23 24 38 31 36 35 31 22 27 26 29
24 24 10 6 4 4 7 8 7 16 26 22 22 19 14 13 10 7 5 4 4 3 4 4 4 6 8 9 13 13 15 13 11 14 18 23 17 18 15 34 37 33 34 26 29 30 24 19 17
25 30 28 6 13 4 8 12 19 19 18 20 21 19 14 13 9 7 7 6 5 5 4 4 6 7 8 9 8 11 11 11 19 8 13 15 15 13 21 30 23 34 27 31 27 22 21 19 23
29 19 17 20 3 5 9 15 18 14 14 22 23 18 13 13 9 7 8 7 7 6 4 3 5 7 7 7 8 10 8 6 9 14 10 14 21 17 24 26 34 31 30 26 26 26 25 26 22
35 29 14 15 12 5 3 5 3 5 14 15 12 15 12 12 10 6 8 9 8 8 7 5 4 4 5 7 10 12 8 4 6 5 11 14 20 15 17 22 31 24 27 24 25 25 24 24 24
34 34 41 16 8 21 9 10 15 17 11 11 13 13 12 14 11 8 8 9 9 8 7 5 5 4 2 5 7 10 8 5 4 6 6 14 21 14 11 16 19 21 21 19 22 23 23 23 25

GFSSGP_700_spd_153.txt.gz
Wind_Speed
11 11 10 9 7 6 10 9 11 10 8 8 9 12 13 8 6 3 6 5 5 6 5 4 3 3 2 2 2 3 4 4 3 4 3 4 3 5 6 5 5 4 5 5 3 3 2 4 6
11 11 11 9 7 8 11 14 13 11 9 8 10 10 12 12 6 8 7 5 3 3 4 5 6 6 5 6 6 5 6 5 5 5 5 4 4 5 4 5 7 7 6 6 4 4 5 6 5
11 11 11 7 8 10 10 15 12 12 11 8 10 11 12 12 11 10 9 8 6 6 4 5 8 9 9 8 9 9 8 7 8 8 7 5 4 5 7 7 8 9 9 7 6 5 7 7 7
11 12 11 11 8 14 12 11 11 10 9 10 13 14 16 16 17 15 12 11 10 8 7 7 10 10 11 12 12 12 9 8 9 9 8 7 5 6 9 11 10 10 10 9 7 7 7 8 6
13 13 14 11 11 12 10 13 11 11 13 14 15 17 18 16 15 16 16 16 15 16 15 12 12 14 16 14 13 13 12 11 11 10 9 8 8 7 8 11 13 14 13 11 9 8 8 7 6
15 13 9 13 14 15 13 14 14 14 14 15 17 19 19 20 18 17 17 16 14 12 14 16 16 17 17 15 14 15 14 13 12 12 11 10 10 9 10 13 14 14 13 11 8 6 6 3 4
14 11 11 9 13 12 11 14 14 12 15 16 18 19 19 20 20 21 21 19 16 14 14 17 15 17 16 16 16 16 15 15 14 14 14 13 13 12 12 13 15 14 13 12 8 5 5 4 4
12 11 11 12 15 11 11 12 12 14 15 13 14 14 17 16 18 20 21 20 16 12 12 13 13 15 17 17 17 16 15 16 16 16 16 17 16 15 15 14 15 15 13 11 8 7 7 7 6
13 13 12 11 15 16 12 13 13 15 16 16 18 21 20 16 16 18 18 18 17 14 13 14 17 18 19 19 18 19 20 20 20 20 21 19 18 19 19 18 17 17 16 13 9 12 10 11 10
14 15 11 13 13 11 14 16 16 17 18 18 19 18 19 19 17 14 17 18 19 21 20 18 20 20 22 23 23 22 21 22 24 23 24 24 22 21 20 21 21 21 19 16 15 16 13 14 14
15 17 13 15 16 15 16 17 19 21 23 20 18 16 16 15 15 14 11 13 15 16 18 19 21 24 27 27 26 23 24 25 26 26 26 27 26 24 22 22 24 23 24 22 20 19 18 16 16
16 14 16 18 17 19 18 20 22 25 20 18 17 17 18 17 16 16 17 17 18 17 17 20 22 23 24 25 27 31 31 29 27 27 27 29 30 29 26 27 27 27 22 24 23 21 19 17 17
16 12 16 18 21 23 20 19 17 19 16 17 19 18 16 16 17 18 21 18 19 19 19 21 22 22 23 24 25 26 29 34 34 32 29 28 29 30 32 33 28 26 25 24 23 23 21 19 18
12 14 15 18 17 20 18 16 20 5 12 15 18 17 17 16 17 19 18 19 21 22 22 23 22 23 24 23 23 25 26 30 31 33 33 29 30 32 39 33 12 24 28 31 27 24 18 15 15
18 19 17 16 15 20 19 24 18 6 11 14 16 14 14 16 19 17 19 21 21 21 19 19 19 20 23 24 25 24 26 29 29 29 33 33 30 28 19 21 20 10 24 33 33 28 20 18 17
14 17 19 5 6 9 16 23 4 9 9 9 11 12 14 17 21 21 18 18 20 20 20 22 22 25 29 30 30 28 26 28 30 29 30 32 31 23 8 5 13 14 26 34 28 35 28 23 18
18 18 15 9 8 9 13 21 7 10 14 13 12 14 18 19 22 22 18 19 21 22 23 25 28 31 34 36 38 38 35 30 31 28 29 32 31 26 19 16 15 15 24 33 31 38 31 25 19
9 15 17 18 11 13 18 25 18 17 22 21 20 22 22 19 20 22 20 18 20 24 26 29 32 35 38 41 44 45 43 36 29 29 29 32 34 35 26 19 14 11 22 27 28 39 37 26 21
21 21 21 19 15 23 26 28 25 23 27 30 27 26 25 23 24 24 19 18 22 26 27 30 35 39 41 38 37 38 34 31 26 26 28 30 29 33 29 21 16 10 9 23 20 31 32 27 27
21 23 26 23 15 19 25 36 35 34 34 33 32 29 29 30 29 24 20 20 25 27 30 32 32 32 29 27 28 27 28 23 25 25 24 24 26 28 23 21 16 14 13 15 12 23 27 35 22
24 26 26 23 18 20 30 44 33 24 24 27 28 29 23 22 24 21 20 22 25 28 29 27 25 23 21 21 20 17 16 17 20 20 20 19 16 17 20 21 19 17 17 18 18 20 26 22 26
25 23 20 20 17 16 14 14 39 28 20 24 22 20 21 16 13 14 17 22 25 26 24 21 18 14 12 14 14 14 14 13 14 16 16 15 18 20 21 22 19 18 20 22 22 24 30 24 27
31 20 17 13 20 22 23 13 18 29 25 16 15 16 16 14 13 15 18 20 23 20 17 16 12 9 8 9 13 15 17 16 14 16 18 18 20 22 23 22 22 20 22 21 25 27 25 31 20
8 19 17 15 18 9 23 21 21 9 2 6 6 11 10 10 10 12 16 19 17 15 14 10 8 5 3 6 11 17 18 17 17 19 19 21 22 23 25 26 25 25 23 22 25 30 25 32 28
14 14 4 3 2 7 5 11 25 13 24 19 8 5 8 10 11 12 15 14 13 14 10 6 4 4 4 6 8 14 18 20 17 17 19 21 23 23 26 27 26 27 28 23 25 27 30 29 25
28 21 10 7 4 4 2 9 7 10 10 11 10 11 11 11 13 14 13 10 13 13 8 4 5 4 5 7 8 10 12 14 19 20 20 21 22 23 26 28 28 24 28 25 26 27 30 29 21
32 29 27 21 4 3 11 22 36 35 33 23 14 12 13 15 12 13 10 9 14 12 9 7 6 5 6 7 8 12 14 16 18 19 20 25 30 34 28 31 28 27 25 29 25 26 34 27 28
34 25 17 16 3 4 8 11 22 22 13 2 6 7 12 15 13 11 10 9 13 12 11 8 10 10 8 8 10 11 12 15 15 17 25 30 28 23 29 30 26 24 29 25 32 36 35 31 41
19 28 26 18 23 5 3 7 8 5 8 6 5 5 6 11 11 11 11 10 13 12 11 7 7 10 10 11 12 13 14 15 14 18 25 15 15 15 22 22 21 22 15 30 31 41 36 35 31
23 25 29 27 9 21 12 9 7 4 15 14 7 6 5 10 12 13 12 10 13 13 11 8 7 8 7 8 11 15 16 13 9 11 11 1 15 15 16 12 11 14 15 22 18 28 31 28 25

GFSSGP_700_spd_156.txt.gz
Wind_Speed
13 12 12 11 7 7 10 10 12 12 11 9 7 6 7 8 7 3 6 7 7 6 6 4 2 1 1 2 3 4 5 5 5 5 5 4 3 2 2 2 2 2 2 4 1 3 4 7 8
12 14 13 11 8 9 10 14 15 13 10 9 7 9 10 13 8 9 8 7 5 4 5 5 3 3 4 4 5 5 5 5 5 5 5 4 4 3 4 3 5 5 4 3 3 5 6 8 8
11 14 14 8 11 11 9 16 15 13 12 10 11 10 10 10 13 12 10 9 8 6 4 3 5 7 8 8 7 8 7 7 5 6 6 5 4 4 5 5 5 7 6 5 6 8 7 7 8
11 15 13 13 10 11 11 15 14 15 13 11 11 13 12 10 14 13 16 15 13 11 11 7 8 11 11 10 10 11 10 8 6 7 7 5 5 5 7 7 8 10 10 8 8 9 9 9 7
14 15 17 11 13 12 13 15 16 15 14 11 12 16 16 14 13 16 17 17 16 17 15 12 12 13 15 15 15 13 12 12 9 8 8 7 6 6 7 10 12 12 10 11 10 10 9 8 7
16 16 12 15 13 16 15 17 17 15 14 13 15 16 17 15 15 16 17 17 16 16 17 18 19 18 16 15 14 15 14 13 11 10 8 8 8 8 8 10 13 15 13 11 10 7 4 5 5
16 16 16 15 13 18 19 17 17 15 14 13 15 17 17 14 15 17 18 18 16 15 16 14 14 15 14 13 13 13 14 16 13 11 11 10 10 11 11 12 15 16 14 11 9 6 5 3 2
15 16 17 15 15 17 17 16 17 16 16 14 14 12 13 13 16 17 18 18 17 15 13 14 14 14 15 14 13 14 15 16 14 14 14 13 12 13 14 15 15 16 14 11 9 8 8 6 3
14 17 15 15 15 19 16 16 17 18 18 16 15 16 18 17 17 17 16 17 15 12 11 10 14 15 15 16 16 16 16 18 19 17 15 15 15 15 15 17 18 17 16 13 12 11 10 8 5
16 19 15 15 15 16 19 17 18 20 19 18 16 16 18 18 18 18 17 15 14 12 13 13 15 17 18 21 21 21 21 20 20 20 20 19 18 17 18 19 20 20 18 17 16 15 15 13 9
18 20 15 15 16 16 17 18 20 21 22 19 19 20 18 17 16 15 14 11 10 11 13 14 16 18 20 21 23 22 21 23 24 24 24 23 23 22 21 20 21 22 22 22 21 20 18 17 13
19 17 16 17 19 20 20 20 23 24 22 21 21 18 18 18 17 15 14 13 13 14 15 16 16 17 18 20 22 25 28 29 27 25 25 25 24 24 24 24 24 23 21 24 22 23 20 19 16
19 17 17 18 21 25 25 24 24 25 19 21 19 20 19 18 15 14 14 14 12 12 15 17 18 19 20 22 22 23 25 26 28 31 30 29 24 25 25 26 29 27 30 24 23 26 24 21 18
18 17 17 20 20 24 26 23 27 17 15 19 19 18 18 17 14 15 14 13 13 13 12 12 13 16 19 21 22 22 22 23 24 26 27 30 30 29 27 27 32 30 31 30 26 23 26 24 21
20 23 21 20 20 24 22 26 25 13 17 18 16 15 14 12 14 14 13 15 16 12 12 11 13 15 17 18 20 22 24 26 27 30 30 29 30 29 27 29 24 28 35 37 34 30 26 26 23
17 20 20 12 12 10 15 28 10 9 16 12 12 13 11 10 13 15 16 17 15 13 14 14 15 17 19 20 22 23 25 25 25 25 29 31 29 29 28 26 20 17 14 17 31 30 31 34 25
20 21 21 15 10 13 13 21 9 6 14 15 14 13 14 14 14 16 18 17 15 14 16 18 19 21 22 24 27 29 31 30 29 29 27 24 29 27 28 21 18 22 15 13 28 27 32 35 28
13 17 19 18 14 17 20 29 23 17 20 23 22 22 21 19 17 16 16 17 16 15 16 19 22 24 25 28 32 34 35 31 30 28 23 23 27 28 30 28 24 19 19 22 28 27 25 24 22
25 23 25 25 20 25 28 34 31 26 27 29 28 27 26 23 22 21 19 17 17 17 19 22 24 26 28 30 33 32 31 28 28 23 22 21 25 28 31 33 29 20 16 19 25 27 34 33 38
23 25 29 28 21 22 29 38 34 30 30 30 29 30 28 26 25 24 22 20 18 19 21 24 26 26 28 28 28 27 26 24 21 20 22 19 21 24 26 35 24 18 16 18 22 23 21 34 35
29 28 27 26 24 24 29 42 31 19 16 20 21 22 27 29 27 24 22 20 19 20 22 25 26 25 25 22 21 20 19 17 14 16 16 16 18 21 18 23 28 25 21 22 20 18 18 33 32
31 25 25 23 20 14 13 13 35 25 14 18 16 23 21 19 17 16 17 16 17 19 22 24 22 21 20 16 16 15 14 10 10 8 10 17 14 14 10 13 20 21 19 21 19 22 18 25 30
25 29 22 19 17 19 25 14 18 26 15 6 6 12 15 18 19 15 14 15 17 18 20 18 18 18 13 13 12 11 9 12 11 11 10 11 10 14 16 18 16 20 22 22 21 19 24 20 31
12 16 16 18 13 6 22 20 14 9 4 6 13 6 11 14 17 16 12 13 15 17 15 14 16 13 10 8 8 9 10 12 13 12 11 11 13 14 16 18 22 22 23 21 23 18 22 22 17
13 7 2 4 3 6 8 12 24 15 15 13 9 5 8 12 13 11 11 12 14 14 11 12 12 11 8 6 6 8 11 13 12 13 14 15 15 17 18 20 23 24 23 25 23 19 20 22 27
27 21 8 6 4 4 4 8 5 4 12 23 19 12 12 13 11 11 10 11 13 11 9 9 11 9 6 7 6 7 9 13 14 16 15 16 18 20 21 21 23 26 26 25 25 25 19 19 18
32 28 27 10 4 3 7 15 28 30 16 24 11 12 10 13 11 11 10 11 12 10 7 10 11 8 7 8 8 9 10 12 14 15 15 16 19 21 23 23 23 23 25 24 21 23 20 23 21
34 25 15 17 4 4 6 9 17 20 14 7 4 4 9 13 12 11 11 12 12 10 7 12 12 11 9 9 11 11 12 14 15 17 19 21 28 31 32 31 30 23 24 24 24 24 16 27 33
26 30 20 16 21 5 1 5 10 6 20 9 3 4 6 10 11 11 12 12 12 9 7 11 10 11 11 13 15 14 14 14 16 17 21 26 30 30 30 32 32 34 27 22 28 18 26 26 34
19 23 32 20 7 11 13 11 5 9 16 15 2 5 5 8 11 12 13 12 11 10 8 10 11 9 9 10 13 15 15 14 12 15 20 10 9 6 15 13 22 25 21 13 19 20 31 30 31

GFSSGP_700_spd_159.txt.gz
Wind_Speed
12 12 11 9 6 7 10 8 11 13 15 13 9 7 5 4 6 5 5 7 7 6 6 6 5 2 2 2 3 3 4 4 4 4 4 4 3 1 0 1 1 2 2 1 3 6 9 10 11
12 12 12 10 9 11 9 12 13 15 15 12 9 6 7 9 9 9 8 8 9 8 8 7 6 3 3 4 4 3 3 4 4 4 4 3 3 2 1 2 2 3 3 2 3 7 9 9 10
12 12 12 8 13 15 8 11 14 16 14 12 9 8 7 6 8 9 11 11 11 11 9 9 7 5 6 7 7 7 6 6 4 4 4 3 2 3 3 3 3 5 4 3 6 6 7 9 9
12 12 12 15 12 9 14 10 16 17 16 14 12 9 8 8 7 13 13 12 12 11 10 10 9 9 11 11 11 9 8 8 7 6 5 3 3 3 4 4 5 6 7 8 7 9 9 8 8
11 13 14 12 14 15 11 14 17 17 16 15 12 13 11 10 10 11 16 19 18 16 14 13 14 16 16 15 13 13 12 10 10 9 8 6 5 3 4 6 7 9 9 10 11 10 9 8 6
13 13 12 15 15 13 15 16 19 18 16 14 14 13 13 13 12 13 16 17 18 18 18 18 18 18 17 14 14 14 12 12 11 11 10 8 7 6 6 6 8 11 12 12 10 8 6 6 5
14 14 16 16 16 14 16 17 19 18 17 16 17 16 16 13 12 13 15 16 16 15 14 14 16 18 18 16 15 15 14 14 12 11 11 11 9 8 8 9 9 11 13 13 11 8 6 6 2
13 15 17 16 15 15 15 19 18 20 20 19 17 14 11 9 11 14 16 17 17 16 16 15 17 17 16 15 14 13 13 13 12 12 13 12 10 10 10 11 10 12 12 13 12 9 7 6 3
14 16 19 17 15 14 14 16 19 22 21 20 17 17 16 13 13 14 14 15 15 15 14 13 13 15 16 17 16 14 14 13 13 13 13 13 13 13 12 13 13 13 13 14 13 11 10 8 6
16 19 15 16 15 14 17 17 19 21 22 22 19 18 17 15 14 15 15 15 14 14 15 15 15 16 18 19 19 19 18 17 17 17 17 19 18 17 16 16 16 15 15 16 15 14 12 13 11
18 19 16 16 16 17 17 18 22 24 26 22 19 19 20 19 16 14 14 12 10 8 8 11 13 14 17 21 23 22 22 21 20 22 23 22 20 20 20 20 19 19 19 17 17 17 16 19 17
20 17 18 15 19 21 21 21 22 25 22 22 22 23 24 20 16 14 14 12 12 11 11 11 12 13 15 18 18 20 23 24 24 23 23 23 23 22 21 21 23 23 21 20 19 20 22 22 22
20 17 19 18 19 23 24 25 25 28 23 24 24 23 22 20 17 15 15 15 13 11 9 10 11 12 15 16 18 18 19 20 21 23 25 27 27 25 22 23 23 24 23 22 23 24 22 23 22
19 18 17 18 18 23 25 25 28 25 21 22 24 22 21 20 16 17 16 14 12 10 9 10 9 11 13 15 17 18 19 21 22 23 23 24 26 26 28 28 25 23 25 22 26 26 25 25 24
20 22 21 20 18 23 23 29 29 17 20 23 25 18 17 16 19 18 16 15 13 10 10 9 10 10 10 12 14 16 18 19 21 24 26 28 28 26 25 28 29 26 23 23 28 28 29 28 26
18 21 21 14 13 15 17 27 16 16 15 20 18 16 16 17 17 15 15 16 15 12 11 11 8 9 12 15 17 20 21 20 22 23 23 26 28 28 28 29 28 25 26 21 26 29 31 31 32
23 23 22 18 16 15 17 23 9 11 17 17 18 16 14 15 17 13 11 15 16 15 13 11 11 13 15 16 18 21 22 23 23 23 23 26 25 26 29 30 28 26 25 23 23 29 26 30 30
14 18 21 18 11 15 21 30 27 20 21 20 22 24 23 21 17 15 15 14 15 16 14 13 14 16 19 21 22 24 25 26 26 22 22 23 24 26 28 29 27 27 27 26 22 18 29 33 38
26 26 28 28 21 24 27 32 32 28 31 29 29 29 29 27 21 20 20 17 14 15 16 15 16 19 22 24 25 25 24 26 25 23 23 22 23 24 25 27 27 29 32 27 27 25 14 37 33
25 28 31 30 25 22 24 33 32 29 29 29 30 31 32 31 28 25 23 22 18 16 16 17 18 21 24 25 22 22 23 23 22 21 22 18 18 18 21 24 27 32 38 28 29 29 26 24 23
31 31 33 30 26 30 28 34 29 22 13 17 22 26 25 32 33 28 25 22 20 17 17 18 20 22 22 19 19 20 20 20 17 17 16 14 15 16 17 18 24 30 33 22 19 20 18 21 24
25 23 30 23 23 14 10 9 28 22 11 19 23 24 18 23 26 29 27 24 21 18 17 18 18 18 16 15 16 17 17 13 16 13 10 10 12 9 12 14 14 28 24 21 22 17 18 24 20
29 14 14 21 21 23 18 12 12 18 7 3 11 7 13 20 19 21 21 21 18 16 16 16 15 14 12 13 14 14 12 12 13 10 9 10 10 8 10 9 6 19 23 22 21 24 21 20 28
20 19 15 13 13 8 20 17 7 8 10 6 13 6 6 12 17 20 16 17 15 14 13 13 11 10 10 12 12 11 9 10 10 9 7 7 8 8 8 11 11 14 19 20 20 21 20 21 26
21 11 4 3 4 5 9 11 22 18 20 8 6 12 8 8 13 18 18 15 13 11 10 9 8 7 9 11 9 8 9 11 12 9 8 10 10 9 10 10 12 15 17 19 20 20 18 22 23
23 22 7 8 7 5 7 8 3 4 8 18 22 18 12 12 13 16 16 13 10 8 7 7 6 5 8 9 8 7 10 12 13 11 12 13 13 14 15 15 15 16 19 19 19 20 20 19 24
24 25 30 17 8 2 5 7 9 17 9 17 14 11 14 14 16 14 13 10 7 6 7 7 6 5 9 9 9 8 10 12 14 15 17 19 19 17 16 17 16 15 18 19 20 17 18 23 20
32 25 14 18 6 8 3 6 12 15 9 12 5 12 13 13 15 13 11 8 7 7 7 7 8 7 11 11 11 10 13 14 15 17 19 20 21 23 22 22 22 21 19 19 17 17 19 22 13
28 29 16 14 24 9 4 5 8 8 20 15 3 9 11 12 13 11 9 8 7 6 7 8 8 7 11 13 14 13 14 15 17 17 19 20 23 29 31 33 31 29 26 22 19 16 16 22 15
31 31 39 15 10 14 18 14 7 12 15 14 6 5 7 11 12 10 8 7 6 6 7 8 8 7 9 10 11 12 13 17 16 14 15 20 21 20 16 19 22 32 30 24 20 21 24 16 16

GFSSGP_700_spd_162.txt.gz
Wind_Speed
11 10 8 5 4 6 9 7 11 12 15 16 13 11 8 9 7 7 4 8 9 8 7 7 7 4 2 1 1 2 3 4 4 3 3 3 2 2 1 1 1 1 2 1 4 8 10 10 11
11 10 9 7 6 10 9 10 11 12 16 16 12 8 6 8 9 11 9 10 11 10 10 10 8 6 4 4 5 4 3 3 4 4 4 2 0 1 1 2 1 2 3 2 5 9 9 10 10
11 11 9 5 9 11 6 6 9 16 17 15 13 10 9 7 8 9 10 12 12 12 12 12 11 9 7 6 7 7 6 5 5 4 5 4 2 2 2 3 3 3 4 3 8 8 10 11 10
11 11 10 11 13 10 12 9 13 16 18 17 14 8 10 9 8 10 11 12 12 12 12 13 14 13 11 9 9 10 10 7 7 7 6 6 6 4 3 4 4 5 5 7 7 10 10 10 9
10 11 11 11 12 16 15 12 14 17 17 17 13 13 10 10 10 10 14 16 14 13 12 13 14 15 14 14 13 13 11 11 10 9 7 6 6 6 5 4 4 6 7 8 10 10 10 8 6
10 10 9 12 12 14 13 14 15 17 17 15 14 13 15 13 13 12 14 17 20 18 17 15 15 16 17 15 14 16 14 13 12 11 9 7 8 5 5 6 7 9 9 10 10 9 8 7 4
10 10 10 13 13 14 11 15 15 16 16 16 18 14 18 15 13 14 14 16 17 18 19 19 20 21 22 21 17 16 14 15 14 12 10 9 8 7 7 8 9 9 10 10 9 8 9 8 4
12 12 15 14 10 10 15 15 18 19 15 20 19 13 16 12 11 12 14 16 16 16 17 17 17 19 18 18 17 14 14 14 15 14 13 13 11 9 8 9 9 10 11 11 10 8 9 9 7
13 13 12 13 14 9 14 14 18 20 22 22 22 19 20 17 14 14 15 16 16 17 16 17 18 17 17 17 17 17 16 16 15 14 12 12 12 13 12 12 12 12 12 12 12 9 9 11 10
15 16 13 16 16 15 14 15 18 19 22 25 24 22 21 19 16 15 15 16 16 16 17 16 16 16 16 16 16 17 16 16 16 16 16 16 17 16 16 15 15 15 14 14 13 12 12 13 13
18 20 18 18 17 18 16 16 20 21 24 23 18 20 22 21 19 18 16 15 16 16 17 17 19 19 18 19 19 19 20 20 19 19 18 18 18 18 18 19 19 19 17 16 15 14 15 17 17
20 20 19 19 18 21 20 21 21 24 24 25 25 25 24 24 23 18 15 14 14 13 14 14 15 15 16 18 20 22 22 22 21 20 21 21 20 20 21 21 21 20 21 20 19 18 19 20 20
20 20 20 20 19 21 23 23 23 25 22 24 25 25 25 25 23 19 17 18 17 15 15 15 15 15 16 17 18 19 20 20 23 25 26 26 27 27 26 24 22 21 21 21 21 19 21 22 23
22 21 19 21 18 21 24 23 26 23 18 23 27 27 27 24 21 20 20 17 16 15 16 15 14 15 15 16 17 18 18 19 20 21 23 24 26 27 28 28 27 24 22 21 21 24 24 24 25
23 23 23 22 19 23 23 28 30 21 22 22 25 24 23 19 20 22 18 17 16 18 17 15 13 13 13 13 14 15 16 18 19 20 22 24 25 27 27 27 26 26 25 24 24 25 26 24 25
20 20 14 13 13 15 16 20 16 17 17 21 24 25 23 21 19 18 20 19 21 20 17 16 14 11 11 13 15 16 18 19 20 21 22 24 26 28 29 29 30 29 27 26 25 25 27 28 29
17 20 16 15 18 19 20 16 13 13 16 22 21 20 21 20 21 20 19 18 20 22 20 19 16 14 13 13 15 17 20 21 22 21 21 24 27 29 30 29 31 31 29 26 26 28 28 28 28
15 17 15 14 11 15 18 26 23 22 22 22 21 24 24 24 21 18 19 19 19 21 21 20 19 17 15 17 19 20 22 23 23 23 24 26 28 30 32 33 32 32 30 29 27 29 30 28 31
22 19 22 21 18 26 23 27 31 29 29 31 28 28 28 27 24 26 24 23 20 19 22 21 20 19 18 20 22 24 24 25 25 24 24 25 27 27 27 29 30 31 31 31 29 29 29 29 33
25 25 27 26 21 22 22 26 30 29 29 26 26 28 31 32 32 32 30 26 22 20 19 21 20 20 20 22 25 26 25 24 21 22 24 24 23 22 23 23 25 28 30 29 30 30 28 17 20
24 26 27 26 25 26 27 31 24 21 16 14 17 23 29 34 36 36 34 30 26 23 21 20 21 21 23 24 25 23 22 19 19 19 19 19 19 20 20 19 19 22 24 28 23 29 28 27 25
25 21 20 20 18 18 7 13 18 21 14 12 20 24 24 27 31 32 40 35 28 24 23 22 22 22 22 22 20 19 17 16 16 15 16 14 13 13 13 17 15 19 25 30 30 27 20 16 21
23 19 16 12 14 20 21 16 15 13 19 10 5 9 15 26 27 31 30 37 32 26 24 23 21 21 20 18 17 15 14 15 14 13 10 11 13 11 12 11 11 16 21 21 24 24 21 16 21
18 13 13 16 13 17 22 19 16 16 10 11 8 3 6 11 18 24 24 31 29 26 24 21 19 17 16 14 12 11 13 14 11 10 11 13 12 12 10 9 8 5 12 18 19 18 19 19 18
22 12 4 7 10 15 12 10 22 15 14 17 19 15 12 9 14 16 20 23 23 22 20 17 15 15 13 10 8 9 11 11 10 11 11 13 12 11 9 7 5 5 8 12 13 14 17 15 17
29 25 11 9 12 12 9 10 9 5 14 6 13 19 15 12 14 20 22 20 21 18 15 14 13 13 10 8 5 8 9 9 11 13 13 14 14 12 11 10 9 11 13 15 15 15 15 14 17
26 30 27 13 11 12 15 13 13 9 3 11 20 20 19 19 17 18 21 19 15 13 11 12 13 11 10 6 5 10 9 9 12 15 16 16 15 16 16 16 14 13 14 15 15 15 15 17 18
33 21 11 12 7 8 12 18 14 10 16 15 13 12 15 20 21 20 18 15 11 9 10 11 11 10 9 6 8 12 10 12 13 16 17 18 20 21 22 21 19 17 15 13 17 17 17 18 21
29 31 21 18 18 9 8 6 15 10 4 11 3 10 14 17 19 18 16 14 10 8 8 9 11 10 9 8 11 13 14 16 17 17 19 20 22 25 26 26 25 22 20 17 16 17 15 14 19
24 26 36 25 18 25 18 10 10 13 6 15 23 9 7 12 16 16 13 12 9 8 8 9 9 9 8 8 10 12 14 16 19 16 14 16 19 21 26 28 33 32 30 25 23 19 17 16 17